Tracking 19976 objects as of 15-Nov-2019
Live streaming from Space Station
objects crossing your sky now

COSMOS 1275 DEB

Track COSMOS 1275 DEB now!
10-day predictions


NORAD ID: 18275
Int'l Code: 1981-053LT
Perigee: 929.0 km
Apogee: 1,121.2 km
Inclination: 82.9 °
Period: 105.5 minutes
Semi major axis: 7396 km
RCS: 0.0076 m2 (small)
Launch date: June 4, 1981
Source: Commonwealth of Independent States (former USSR) (CIS)
Launch site: PLESETSK MISSILE AND SPACE COMPLEX (PKMTR)

Note: This is SATELLITE DEBRIS
aabbcc
Your satellite tracking list
Your tracking list is empty




NASA's NSSDC Master Catalog

Two Line Element Set (TLE):
1 18275U 81053LQ  19317.52238326  .00000321  00000-0  35628-3 0  9995
2 18275  82.9279 145.5994 0129906  83.8776 306.7156 13.64893148727691
Source of the keplerian elements: AFSPC